User: anonymous   Login
Location: Caltech
(34.1382°N, 118.1253°W)
Time: 03:29:17
(UTC-07:00)
Language:

RESURS DK-1 - Orbit

View from above orbital plane
View from above orbital plane
View from above satellite
View from above satellite

Ground track
Ground track

The orbit data is extracted from the following two-line orbital elements,

1 29228U 06021A   14305.09022712  .00001804  00000-0  14880-3 0  3832
2 29228 069.9389 016.5880 0005125 335.6197 098.6522 15.00932688464114
Epoch (UTC): 01 November 2014 02:09:55
Eccentricity: 0.0005125
inclination: 69.9389°
perigee height: 560 km
apogee height: 567 km
right ascension of ascending node: 16.5880°
argument of perigee: 335.6197°
revolutions per day: 15.00932688
mean anomaly at epoch: 98.6522°
orbit number at epoch: 46411

The dashed part of the orbit path shows where the satellite is in the earth's shadow,  

DLR